Gogerbank, United Kingdom

7:29 AM BST on April 23, 2017 (GMT +0100)
Gogerbank

Weather History for 03160 - October, 2013

Change the Weather History Date:

Wednesday, October 16, 2013

  Actual Average Record
Temperature  
Mean Temperature 42 °F -  
Max Temperature 51 °F 52 °F - ()
Min Temperature 32 °F 39 °F - ()
Degree Days  
Heating Degree Days 24    
Moisture  
Dew Point 44 °F    
Average Humidity 94    
Maximum Humidity 100    
Minimum Humidity 82    
Precipitation  
Precipitation 0.00 in 0.08 in - ()
Sea Level Pressure  
Sea Level Pressure 29.77 in    
Wind  
Wind Speed 5 mph ()    
Max Wind Speed 15 mph    
Max Gust Speed -    
Visibility 5.7 miles    
Events Fog , Rain    
T = Trace of Precipitation, MM = Missing Value Source: Averaged Metar Reports

Daily Weather History Graph

Daily Weather History Graph

Search for Another Location

Airport or City:

Trip Planner

Search our weather history database for the weather conditions in past years. The results will help you decide how hot, cold, wet, or windy it might be!

Date:

Astronomy

Oct. 16, 2013 Rise Set
Actual Time 7:46 AM BST 6:10 PM BST
Civil Twilight 7:09 AM BST 6:47 PM BST
Nautical Twilight 6:26 AM BST 7:30 PM BST
Astronomical Twilight 5:42 AM BST 8:13 PM BST
Moon 5:01 PM BST (10/16) 4:33 AM BST (10/16)
Length of Visible Light 11h 38m
Length of Day
10h 23m
Waxing Gibbous, 93% of the Moon is Illuminated
Oct 16
Waxing Gibbous
Oct 19
Full
Oct 27
Last Quarter
Nov 3
New
Nov 10
First Quarter

Hourly Weather History & Observations

Time (BST) Temp. Windchill Dew Point Humidity Pressure Visibility Wind Dir Wind Speed Gust Speed Precip Events Conditions
12:20 AM 37.4 °F - 37.4 °F 100% 29.98 in 6.2 mi Calm Calm - N/A Fog Patches of Fog
12:50 AM 37.4 °F - 37.4 °F 100% 29.98 in 6.2 mi Variable 2.3 mph - N/A Fog Patches of Fog
1:20 AM 35.6 °F - 35.6 °F 100% 29.98 in 6.2 mi Variable 2.3 mph - N/A Fog Patches of Fog
1:50 AM 35.6 °F - 35.6 °F 100% 29.98 in 6.2 mi Calm Calm - N/A Fog Patches of Fog
2:20 AM 33.8 °F - 33.8 °F 100% 29.98 in 6.2 mi Calm Calm - N/A Fog Patches of Fog
2:50 AM 32.0 °F - 32.0 °F 100% 29.95 in 6.2 mi Calm Calm - N/A Fog Patches of Fog
3:20 AM 33.8 °F - 33.8 °F 100% 29.95 in 0.2 mi Calm Calm - N/A Fog Patches of Fog
3:50 AM 33.8 °F - 33.8 °F 100% 29.95 in 6.2 mi Calm Calm - N/A Fog Patches of Fog
4:20 AM 33.8 °F - 33.8 °F 100% 29.95 in 6.2 mi West 2.3 mph - N/A Fog Patches of Fog
4:50 AM 32.0 °F - 32.0 °F 100% 29.92 in 6.2 mi Variable 2.3 mph - N/A Fog Shallow Fog
5:20 AM 33.8 °F 30.8 °F 33.8 °F 100% 29.92 in 6.2 mi ENE 3.5 mph - N/A   Scattered Clouds
5:50 AM 35.6 °F 29.9 °F 35.6 °F 100% 29.92 in 6.2 mi ENE 6.9 mph - N/A Fog Shallow Fog
6:20 AM 37.4 °F 32.1 °F 37.4 °F 100% 29.89 in - ENE 6.9 mph - N/A   Partly Cloudy
6:50 AM 41.0 °F 36.4 °F 41.0 °F 100% 29.89 in 6.2 mi ENE 6.9 mph - N/A   Scattered Clouds
7:20 AM 39.2 °F 34.2 °F 39.2 °F 100% 29.89 in 6.2 mi ENE 6.9 mph - N/A   Mostly Cloudy
7:50 AM 42.8 °F 40.1 °F 42.8 °F 100% 29.86 in 6.2 mi ENE 4.6 mph - N/A   Mostly Cloudy
8:20 AM 44.6 °F 40.2 °F 42.8 °F 93% 29.86 in 6.2 mi ENE 8.1 mph - N/A   Mostly Cloudy
8:50 AM 46.4 °F 42.4 °F 44.6 °F 93% 29.86 in 6.2 mi NNE 8.1 mph - N/A   Mostly Cloudy
9:20 AM 46.4 °F 42.4 °F 44.6 °F 93% 29.86 in 6.2 mi ENE 8.1 mph - N/A   Mostly Cloudy
9:50 AM 48.2 °F - 44.6 °F 87% 29.83 in 6.2 mi NE 9.2 mph - N/A   Scattered Clouds
10:20 AM 48.2 °F - 44.6 °F 87% 29.83 in 6.2 mi NE 8.1 mph - N/A   Mostly Cloudy
10:50 AM 48.2 °F - 44.6 °F 87% 29.80 in 6.2 mi ENE 9.2 mph - N/A   Mostly Cloudy
11:20 AM 50.0 °F - 46.4 °F 87% 29.80 in 6.2 mi East 13.8 mph - N/A   Partly Cloudy
11:50 AM 50.0 °F - 46.4 °F 87% 29.77 in 6.2 mi ENE 11.5 mph - N/A   Mostly Cloudy
12:20 PM 50.0 °F - 46.4 °F 87% 29.77 in 6.2 mi ENE 11.5 mph - N/A   Mostly Cloudy
12:50 PM 51.8 °F - 48.2 °F 88% 29.74 in 6.2 mi ENE 11.5 mph - N/A   Mostly Cloudy
1:20 PM 51.8 °F - 48.2 °F 88% 29.74 in 6.2 mi ENE 10.4 mph - N/A   Mostly Cloudy
1:50 PM 51.8 °F - 46.4 °F 82% 29.71 in 6.2 mi East 10.4 mph - N/A   Mostly Cloudy
2:20 PM 51.8 °F - 46.4 °F 82% 29.71 in 6.2 mi East 10.4 mph - N/A   Mostly Cloudy
2:50 PM 51.8 °F - 48.2 °F 88% 29.68 in 6.2 mi ENE 10.4 mph - N/A   Mostly Cloudy
3:20 PM 51.8 °F - 48.2 °F 88% 29.68 in 6.2 mi ENE 9.2 mph - N/A   Mostly Cloudy
3:50 PM 51.8 °F - 46.4 °F 82% 29.65 in 6.2 mi East 9.2 mph - N/A   Mostly Cloudy
4:20 PM 51.8 °F - 46.4 °F 82% 29.65 in 6.2 mi ENE 9.2 mph - N/A   Mostly Cloudy
4:50 PM 50.0 °F - 48.2 °F 94% 29.62 in 5.6 mi ENE 9.2 mph - N/A Rain Light Rain
5:20 PM 50.0 °F - 48.2 °F 94% 29.62 in 6.2 mi ENE 8.1 mph - N/A Rain Light Rain
5:50 PM 50.0 °F - 48.2 °F 94% 29.59 in 6.2 mi ENE 10.4 mph - N/A Rain Rain
6:20 PM 50.0 °F - 50.0 °F 100% 29.59 in 5.0 mi ENE 12.7 mph - N/A Rain Rain
6:50 PM 50.0 °F - 50.0 °F 100% 29.59 in 5.0 mi ENE 10.4 mph - N/A Rain Light Rain
7:20 PM 50.0 °F - 50.0 °F 100% 29.59 in 5.0 mi ENE 9.2 mph - N/A Rain Light Rain
7:50 PM 50.0 °F - 50.0 °F 100% 29.59 in 5.6 mi ENE 8.1 mph - N/A Rain Light Rain
8:20 PM 50.0 °F - 50.0 °F 100% 29.56 in 5.0 mi ENE 6.9 mph - N/A Rain Rain
8:50 PM 50.0 °F - 48.2 °F 94% 29.56 in 4.3 mi NNE 5.8 mph - N/A Rain Rain
9:20 PM 50.0 °F - 48.2 °F 94% 29.56 in 5.0 mi ENE 12.7 mph - N/A Rain Rain
9:50 PM 50.0 °F - 50.0 °F 100% 29.56 in 3.7 mi ENE 15.0 mph - N/A Rain Rain
10:20 PM 50.0 °F - 48.2 °F 94% 29.59 in 4.3 mi NNE 6.9 mph - N/A Rain Rain
10:50 PM 48.2 °F - 46.4 °F 93% 29.59 in 5.0 mi NNE 4.6 mph - N/A Rain Rain
11:20 PM 48.2 °F - 46.4 °F 93% 29.62 in 6.2 mi NE 5.8 mph - N/A Rain Light Rain
11:50 PM 48.2 °F - 48.2 °F 100% 29.62 in 5.6 mi Variable 3.5 mph - N/A Rain Light Rain